Location: Bosdarros
(43.2167°N, 0.3667°W)
Time: 01:59:03
(UTC+00:00)

FALCON 9 DEB - Pass Details

Date: 22 April 2021
Orbit: 364 x 381 km, 53.0° (Epoch: 15 May)

Event Time Altitude Azimuth Distance (km) Brightness Sun altitude
Rises 19:15:52 0° 208° (SSW) 2,187 6.8 -4.8°
Reaches altitude 10° 19:18:02 10° 195° (SSW) 1,344 5.6 -5.2°
Maximum altitude 19:20:38 27° 135° (SE) 743 3.8 -5.6°
Drops below altitude 10° 19:23:15 10° 75° (ENE) 1,354 5.2 -6.0°
Sets 19:25:27 0° 63° (ENE) 2,208 6.3 -6.4°
